QPF
0.01 0.01 0.00 0.00 0.00 0.00 0.01 0.01 0.01 0.01 0.02 0.01 0.01 0.01 0.02 0.02 0.04 0.06 0.06 0.04 0.04 0.04 0.04 0.03 0.03 0.03 0.03 0.03 0.02 0.02 0.02 0.02 0.02 0.01 0.00 0.00 0.01 0.02 0.02 0.03 0.03 0.03 0.03
0.01 0.01 0.01 0.00 0.00 0.00 0.00 0.00 0.01 0.01 0.02 0.02 0.02 0.01 0.01 0.02 0.02 0.04 0.07 0.06 0.05 0.04 0.04 0.04 0.04 0.04 0.04 0.03 0.02 0.02 0.02 0.02 0.01 0.01 0.00 0.00 0.00 0.01 0.01 0.02 0.02 0.03 0.03
0.00 0.00 0.01 0.00 0.00 0.00 0.00 0.00 0.00 0.01 0.01 0.02 0.03 0.02 0.02 0.02 0.02 0.03 0.06 0.08 0.07 0.06 0.05 0.05 0.04 0.04 0.05 0.04 0.03 0.02 0.01 0.01 0.01 0.01 0.01 0.00 0.00 0.00 0.01 0.01 0.02 0.03 0.03
0.00 0.00 0.00 0.00 0.00 0.00 0.00 0.00 0.00 0.00 0.01 0.01 0.01 0.02 0.02 0.01 0.01 0.02 0.04 0.07 0.08 0.07 0.06 0.05 0.04 0.05 0.05 0.05 0.04 0.03 0.02 0.02 0.02 0.02 0.01 0.01 0.01 0.01 0.01 0.01 0.02 0.03 0.03
0.00 0.00 0.00 0.00 0.00 0.00 0.00 0.00 0.00 0.00 0.00 0.01 0.01 0.01 0.01 0.01 0.01 0.02 0.02 0.03 0.06 0.07 0.07 0.07 0.06 0.05 0.06 0.06 0.06 0.05 0.04 0.04 0.04 0.03 0.02 0.02 0.01 0.01 0.01 0.02 0.04 0.05 0.05
0.00 0.00 0.00 0.00 0.00 0.00 0.00 0.00 0.00 0.00 0.00 0.00 0.00 0.01 0.01 0.01 0.01 0.02 0.02 0.02 0.03 0.05 0.07 0.07 0.07 0.06 0.05 0.06 0.07 0.07 0.06 0.06 0.06 0.05 0.04 0.03 0.02 0.02 0.02 0.03 0.04 0.06 0.06
0.00 0.00 0.00 0.00 0.00 0.00 0.00 0.00 0.00 0.00 0.00 0.00 0.00 0.00 0.01 0.01 0.01 0.01 0.02 0.02 0.02 0.03 0.04 0.06 0.07 0.06 0.06 0.06 0.06 0.07 0.06 0.06 0.06 0.06 0.06 0.04 0.03 0.03 0.03 0.04 0.05 0.06 0.06
0.01 0.01 0.00 0.00 0.00 0.00 0.00 0.00 0.00 0.00 0.00 0.00 0.00 0.00 0.00 0.00 0.01 0.01 0.01 0.02 0.02 0.02 0.02 0.04 0.06 0.05 0.05 0.06 0.07 0.07 0.06 0.06 0.05 0.05 0.05 0.04 0.04 0.04 0.04 0.06 0.07 0.07 0.06
0.02 0.01 0.01 0.00 0.00 0.00 0.00 0.00 0.00 0.00 0.00 0.00 0.00 0.00 0.00 0.00 0.00 0.00 0.01 0.01 0.02 0.02 0.02 0.02 0.03 0.04 0.04 0.05 0.07 0.08 0.07 0.06 0.06 0.05 0.05 0.05 0.06 0.06 0.06 0.08 0.10 0.11 0.09
0.01 0.01 0.01 0.01 0.01 0.01 0.00 0.00 0.00 0.00 0.00 0.00 0.00 0.00 0.00 0.00 0.00 0.00 0.01 0.01 0.02 0.02 0.02 0.02 0.02 0.02 0.03 0.05 0.06 0.07 0.07 0.05 0.05 0.06 0.06 0.05 0.04 0.04 0.05 0.06 0.07 0.09 0.08
0.00 0.01 0.01 0.01 0.01 0.01 0.01 0.01 0.01 0.01 0.01 0.00 0.00 0.00 0.00 0.00 0.00 0.00 0.01 0.02 0.02 0.02 0.02 0.02 0.01 0.02 0.02 0.04 0.05 0.06 0.06 0.05 0.05 0.05 0.05 0.05 0.05 0.05 0.04 0.04 0.05 0.07 0.08
0.00 0.00 0.00 0.01 0.01 0.01 0.01 0.01 0.01 0.01 0.01 0.01 0.00 0.00 0.00 0.00 0.00 0.00 0.01 0.01 0.02 0.03 0.02 0.02 0.02 0.02 0.02 0.03 0.03 0.04 0.05 0.05 0.05 0.05 0.05 0.05 0.05 0.04 0.04 0.04 0.04 0.05 0.06
0.00 0.00 0.00 0.00 0.00 0.00 0.00 0.01 0.01 0.01 0.01 0.01 0.01 0.01 0.01 0.00 0.00 0.00 0.01 0.01 0.01 0.02 0.02 0.02 0.02 0.02 0.02 0.02 0.02 0.02 0.03 0.04 0.04 0.05 0.05 0.04 0.03 0.03 0.04 0.04 0.04 0.04 0.05
0.00 0.00 0.00 0.00 0.00 0.00 0.00 0.00 0.00 0.01 0.01 0.01 0.01 0.01 0.01 0.01 0.01 0.01 0.01 0.01 0.02 0.02 0.02 0.02 0.02 0.01 0.01 0.01 0.02 0.02 0.02 0.03 0.04 0.04 0.04 0.03 0.03 0.04 0.05 0.05 0.06 0.05 0.06
0.00 0.00 0.00 0.00 0.00 0.00 0.00 0.00 0.00 0.01 0.01 0.02 0.02 0.02 0.02 0.02 0.02 0.02 0.02 0.03 0.03 0.03 0.03 0.03 0.02 0.01 0.01 0.02 0.02 0.03 0.03 0.03 0.03 0.03 0.03 0.03 0.03 0.04 0.05 0.05 0.06 0.06 0.05
0.01 0.01 0.01 0.00 0.00 0.00 0.00 0.00 0.00 0.00 0.01 0.01 0.01 0.02 0.02 0.02 0.02 0.02 0.02 0.03 0.03 0.03 0.03 0.03 0.02 0.02 0.02 0.02 0.02 0.02 0.03 0.03 0.03 0.03 0.03 0.04 0.04 0.04 0.04 0.05 0.06 0.06 0.05
0.01 0.01 0.01 0.01 0.01 0.01 0.00 0.01 0.01 0.00 0.00 0.01 0.01 0.01 0.02 0.02 0.02 0.02 0.02 0.02 0.02 0.02 0.02 0.02 0.02 0.02 0.02 0.02 0.02 0.02 0.02 0.02 0.02 0.03 0.04 0.04 0.04 0.04 0.05 0.05 0.06 0.06 0.06
0.01 0.01 0.01 0.01 0.01 0.01 0.01 0.01 0.01 0.01 0.01 0.00 0.00 0.01 0.01 0.01 0.02 0.02 0.02 0.02 0.01 0.01 0.02 0.02 0.02 0.02 0.02 0.02 0.02 0.02 0.02 0.02 0.02 0.03 0.04 0.04 0.05 0.06 0.06 0.06 0.06 0.06 0.06
0.02 0.01 0.01 0.01 0.01 0.01 0.01 0.01 0.01 0.01 0.01 0.01 0.01 0.01 0.01 0.01 0.01 0.02 0.02 0.02 0.02 0.02 0.02 0.02 0.02 0.02 0.02 0.02 0.03 0.03 0.03 0.03 0.03 0.03 0.03 0.04 0.05 0.06 0.06 0.06 0.06 0.06 0.06
0.02 0.02 0.01 0.02 0.02 0.02 0.02 0.02 0.02 0.02 0.01 0.01 0.01 0.01 0.01 0.02 0.02 0.02 0.02 0.02 0.02 0.01 0.01 0.02 0.02 0.02 0.02 0.02 0.02 0.03 0.03 0.03 0.03 0.03 0.03 0.04 0.05 0.06 0.06 0.06 0.07 0.07 0.06
0.02 0.02 0.02 0.02 0.02 0.02 0.02 0.02 0.02 0.02 0.02 0.02 0.01 0.01 0.02 0.03 0.03 0.03 0.03 0.03 0.02 0.02 0.02 0.02 0.01 0.02 0.02 0.02 0.02 0.02 0.02 0.02 0.03 0.03 0.03 0.03 0.04 0.05 0.05 0.06 0.07 0.08 0.07
0.02 0.02 0.03 0.03 0.03 0.03 0.03 0.03 0.03 0.03 0.03 0.03 0.02 0.02 0.02 0.02 0.02 0.02 0.03 0.03 0.03 0.02 0.02 0.02 0.02 0.01 0.01 0.02 0.02 0.02 0.02 0.02 0.02 0.03 0.03 0.03 0.04 0.05 0.05 0.06 0.06 0.07 0.08
0.01 0.02 0.03 0.04 0.04 0.04 0.04 0.03 0.03 0.04 0.04 0.04 0.03 0.03 0.02 0.02 0.02 0.02 0.03 0.03 0.03 0.02 0.02 0.02 0.02 0.02 0.01 0.02 0.02 0.02 0.03 0.02 0.02 0.03 0.03 0.04 0.04 0.04 0.05 0.06 0.06 0.06 0.06
0.01 0.01 0.02 0.03 0.04 0.04 0.05 0.04 0.04 0.04 0.04 0.03 0.03 0.03 0.03 0.03 0.03 0.03 0.03 0.03 0.03 0.03 0.02 0.02 0.02 0.02 0.02 0.02 0.02 0.02 0.02 0.03 0.03 0.04 0.04 0.04 0.04 0.04 0.05 0.05 0.06 0.06 0.06
0.01 0.01 0.02 0.02 0.03 0.03 0.04 0.04 0.05 0.04 0.04 0.03 0.03 0.03 0.03 0.03 0.03 0.03 0.03 0.03 0.04 0.03 0.02 0.02 0.02 0.02 0.02 0.02 0.02 0.02 0.03 0.03 0.04 0.05 0.06 0.06 0.06 0.05 0.05 0.06 0.06 0.07 0.06
0.01 0.01 0.01 0.02 0.02 0.02 0.03 0.03 0.03 0.03 0.03 0.03 0.03 0.03 0.03 0.03 0.03 0.03 0.03 0.03 0.04 0.04 0.03 0.02 0.02 0.02 0.02 0.02 0.02 0.03 0.04 0.04 0.04 0.05 0.07 0.08 0.07 0.06 0.06 0.07 0.07 0.07 0.06
MSLP
1012.21 1012.90 1013.59 1014.26 1014.91 1015.54 1016.14 1016.73 1017.32 1017.91 1018.49 1019.07 1019.61 1020.12 1020.59 1021.01 1021.39 1021.74 1022.07 1022.40 1022.74 1023.09 1023.45 1023.79 1024.10 1024.37 1024.58 1024.71 1024.77 1024.75 1024.67 1024.53 1024.35 1024.13 1023.90 1023.65 1023.40 1023.14 1022.87 1022.61 1022.36 1022.11 1021.88
1011.88 1012.55 1013.21 1013.87 1014.50 1015.12 1015.71 1016.29 1016.87 1017.43 1017.98 1018.52 1019.03 1019.50 1019.94 1020.34 1020.70 1021.04 1021.36 1021.68 1022.00 1022.32 1022.64 1022.95 1023.23 1023.48 1023.68 1023.82 1023.90 1023.93 1023.90 1023.83 1023.71 1023.56 1023.36 1023.14 1022.89 1022.61 1022.31 1022.01 1021.70 1021.42 1021.15
1011.69 1012.33 1012.97 1013.60 1014.20 1014.78 1015.35 1015.90 1016.44 1016.97 1017.49 1018.00 1018.47 1018.91 1019.32 1019.70 1020.04 1020.36 1020.66 1020.95 1021.24 1021.52 1021.79 1022.04 1022.27 1022.48 1022.65 1022.79 1022.89 1022.96 1022.99 1022.98 1022.93 1022.83 1022.69 1022.50 1022.26 1021.98 1021.67 1021.34 1021.01 1020.69 1020.40
1011.64 1012.27 1012.87 1013.45 1014.01 1014.55 1015.07 1015.58 1016.09 1016.58 1017.06 1017.53 1017.97 1018.39 1018.78 1019.14 1019.46 1019.76 1020.04 1020.29 1020.53 1020.75 1020.96 1021.14 1021.31 1021.46 1021.59 1021.71 1021.82 1021.91 1021.98 1022.02 1022.03 1022.00 1021.91 1021.75 1021.54 1021.27 1020.96 1020.63 1020.28 1019.94 1019.63
1011.75 1012.35 1012.92 1013.46 1013.97 1014.45 1014.93 1015.39 1015.85 1016.30 1016.75 1017.18 1017.60 1017.99 1018.36 1018.70 1019.01 1019.29 1019.53 1019.75 1019.93 1020.09 1020.22 1020.33 1020.42 1020.50 1020.58 1020.66 1020.75 1020.85 1020.94 1021.02 1021.08 1021.09 1021.04 1020.93 1020.74 1020.49 1020.19 1019.86 1019.51 1019.16 1018.83
1012.03 1012.61 1013.14 1013.63 1014.09 1014.53 1014.95 1015.37 1015.78 1016.20 1016.60 1017.00 1017.39 1017.76 1018.11 1018.43 1018.72 1018.97 1019.18 1019.35 1019.48 1019.57 1019.62 1019.64 1019.65 1019.66 1019.68 1019.71 1019.77 1019.85 1019.94 1020.04 1020.12 1020.16 1020.15 1020.06 1019.91 1019.68 1019.39 1019.06 1018.71 1018.36 1018.01
1012.48 1013.03 1013.53 1013.98 1014.40 1014.80 1015.18 1015.56 1015.93 1016.30 1016.67 1017.03 1017.38 1017.72 1018.04 1018.33 1018.58 1018.80 1018.97 1019.09 1019.16 1019.19 1019.17 1019.11 1019.05 1018.97 1018.92 1018.90 1018.91 1018.96 1019.04 1019.13 1019.22 1019.27 1019.28 1019.21 1019.08 1018.87 1018.60 1018.28 1017.93 1017.56 1017.20
1013.08 1013.60 1014.07 1014.50 1014.90 1015.27 1015.62 1015.96 1016.29 1016.62 1016.95 1017.26 1017.57 1017.86 1018.13 1018.37 1018.59 1018.76 1018.89 1018.96 1018.97 1018.93 1018.85 1018.72 1018.58 1018.45 1018.33 1018.24 1018.20 1018.21 1018.26 1018.33 1018.41 1018.46 1018.48 1018.43 1018.31 1018.12 1017.86 1017.54 1017.19 1016.81 1016.42
1013.80 1014.30 1014.75 1015.16 1015.54 1015.90 1016.23 1016.55 1016.85 1017.13 1017.41 1017.66 1017.91 1018.13 1018.34 1018.53 1018.68 1018.80 1018.87 1018.89 1018.85 1018.76 1018.62 1018.44 1018.24 1018.04 1017.86 1017.73 1017.64 1017.60 1017.61 1017.66 1017.72 1017.77 1017.78 1017.74 1017.64 1017.46 1017.21 1016.90 1016.54 1016.15 1015.73
1014.59 1015.06 1015.50 1015.90 1016.28 1016.63 1016.96 1017.25 1017.52 1017.76 1017.98 1018.17 1018.34 1018.49 1018.62 1018.73 1018.82 1018.87 1018.88 1018.85 1018.77 1018.63 1018.44 1018.22 1017.98 1017.74 1017.51 1017.33 1017.20 1017.12 1017.09 1017.11 1017.15 1017.19 1017.20 1017.17 1017.08 1016.92 1016.68 1016.38 1016.02 1015.61 1015.16
1015.41 1015.84 1016.26 1016.66 1017.04 1017.39 1017.71 1017.99 1018.23 1018.43 1018.58 1018.71 1018.80 1018.86 1018.91 1018.94 1018.94 1018.93 1018.89 1018.81 1018.68 1018.51 1018.30 1018.05 1017.78 1017.50 1017.25 1017.03 1016.86 1016.75 1016.69 1016.68 1016.70 1016.73 1016.74 1016.72 1016.64 1016.50 1016.28 1015.99 1015.64 1015.22 1014.75
1016.19 1016.59 1016.99 1017.38 1017.76 1018.11 1018.42 1018.68 1018.89 1019.05 1019.15 1019.20 1019.22 1019.20 1019.16 1019.11 1019.05 1018.97 1018.88 1018.75 1018.60 1018.41 1018.18 1017.91 1017.63 1017.34 1017.06 1016.82 1016.62 1016.48 1016.39 1016.36 1016.36 1016.37 1016.38 1016.37 1016.30 1016.18 1015.98 1015.71 1015.37 1014.96 1014.49
1016.91 1017.27 1017.65 1018.02 1018.39 1018.73 1019.03 1019.28 1019.46 1019.58 1019.63 1019.62 1019.56 1019.47 1019.36 1019.24 1019.12 1018.99 1018.85 1018.70 1018.53 1018.33 1018.09 1017.82 1017.54 1017.24 1016.95 1016.69 1016.47 1016.30 1016.18 1016.12 1016.10 1016.10 1016.10 1016.09 1016.03 1015.93 1015.75 1015.50 1015.17 1014.78 1014.32
1017.58 1017.89 1018.23 1018.58 1018.92 1019.25 1019.53 1019.75 1019.90 1019.98 1019.99 1019.93 1019.82 1019.67 1019.50 1019.33 1019.16 1018.99 1018.83 1018.67 1018.49 1018.28 1018.05 1017.79 1017.51 1017.21 1016.92 1016.64 1016.39 1016.20 1016.05 1015.96 1015.91 1015.89 1015.87 1015.85 1015.80 1015.69 1015.53 1015.30 1014.99 1014.62 1014.18
1018.21 1018.47 1018.76 1019.06 1019.37 1019.66 1019.91 1020.10 1020.22 1020.27 1020.24 1020.14 1019.99 1019.80 1019.60 1019.39 1019.19 1019.00 1018.83 1018.66 1018.48 1018.29 1018.06 1017.82 1017.54 1017.25 1016.95 1016.66 1016.39 1016.17 1015.99 1015.85 1015.77 1015.71 1015.66 1015.62 1015.55 1015.44 1015.28 1015.05 1014.76 1014.41 1014.00
1018.81 1019.02 1019.25 1019.50 1019.76 1020.00 1020.21 1020.36 1020.45 1020.46 1020.40 1020.27 1020.09 1019.88 1019.65 1019.43 1019.21 1019.02 1018.84 1018.67 1018.50 1018.32 1018.11 1017.88 1017.62 1017.33 1017.03 1016.73 1016.44 1016.18 1015.96 1015.78 1015.65 1015.54 1015.45 1015.37 1015.26 1015.13 1014.95 1014.72 1014.44 1014.10 1013.72
1019.41 1019.56 1019.73 1019.92 1020.12 1020.30 1020.45 1020.56 1020.61 1020.59 1020.50 1020.35 1020.15 1019.92 1019.68 1019.44 1019.22 1019.02 1018.84 1018.68 1018.52 1018.35 1018.16 1017.95 1017.70 1017.42 1017.12 1016.81 1016.50 1016.21 1015.95 1015.72 1015.53 1015.36 1015.21 1015.07 1014.92 1014.75 1014.54 1014.29 1013.99 1013.66 1013.29
1020.00 1020.09 1020.20 1020.33 1020.46 1020.58 1020.68 1020.74 1020.74 1020.68 1020.57 1020.39 1020.17 1019.92 1019.67 1019.42 1019.19 1018.98 1018.80 1018.65 1018.49 1018.34 1018.17 1017.97 1017.73 1017.46 1017.16 1016.84 1016.52 1016.20 1015.90 1015.62 1015.37 1015.14 1014.93 1014.72 1014.51 1014.29 1014.03 1013.75 1013.43 1013.08 1012.71
1020.55 1020.60 1020.65 1020.71 1020.78 1020.85 1020.89 1020.89 1020.85 1020.75 1020.60 1020.40 1020.15 1019.88 1019.61 1019.34 1019.10 1018.89 1018.70 1018.54 1018.40 1018.25 1018.09 1017.90 1017.67 1017.41 1017.12 1016.79 1016.45 1016.10 1015.77 1015.44 1015.13 1014.84 1014.57 1014.30 1014.02 1013.74 1013.44 1013.11 1012.76 1012.39 1012.01
1021.02 1021.02 1021.03 1021.04 1021.06 1021.07 1021.06 1021.01 1020.92 1020.79 1020.60 1020.36 1020.09 1019.80 1019.50 1019.21 1018.95 1018.72 1018.52 1018.35 1018.20 1018.05 1017.90 1017.71 1017.49 1017.24 1016.94 1016.61 1016.25 1015.88 1015.51 1015.14 1014.78 1014.43 1014.10 1013.77 1013.44 1013.10 1012.75 1012.38 1011.99 1011.60 1011.20
1021.36 1021.33 1021.30 1021.27 1021.25 1021.21 1021.16 1021.07 1020.94 1020.77 1020.54 1020.28 1019.97 1019.65 1019.33 1019.02 1018.73 1018.48 1018.27 1018.08 1017.92 1017.76 1017.59 1017.40 1017.18 1016.91 1016.61 1016.26 1015.88 1015.48 1015.07 1014.66 1014.25 1013.86 1013.47 1013.09 1012.71 1012.33 1011.93 1011.53 1011.12 1010.70 1010.27
1021.53 1021.47 1021.42 1021.37 1021.31 1021.24 1021.16 1021.04 1020.88 1020.67 1020.42 1020.13 1019.80 1019.45 1019.11 1018.78 1018.47 1018.20 1017.96 1017.75 1017.56 1017.38 1017.19 1016.97 1016.73 1016.43 1016.10 1015.72 1015.30 1014.87 1014.41 1013.96 1013.50 1013.06 1012.62 1012.20 1011.78 1011.37 1010.95 1010.53 1010.09 1009.66 1009.22
1021.51 1021.44 1021.37 1021.30 1021.22 1021.14 1021.03 1020.89 1020.71 1020.49 1020.22 1019.91 1019.57 1019.21 1018.85 1018.50 1018.18 1017.88 1017.62 1017.38 1017.16 1016.94 1016.71 1016.45 1016.15 1015.81 1015.42 1014.98 1014.50 1014.00 1013.49 1012.97 1012.46 1011.97 1011.49 1011.03 1010.58 1010.15 1009.72 1009.28 1008.85 1008.41 1007.96
1021.32 1021.24 1021.15 1021.07 1020.98 1020.89 1020.77 1020.62 1020.43 1020.21 1019.93 1019.62 1019.28 1018.93 1018.56 1018.21 1017.88 1017.56 1017.28 1017.00 1016.74 1016.47 1016.17 1015.85 1015.47 1015.04 1014.57 1014.04 1013.47 1012.88 1012.29 1011.69 1011.11 1010.55 1010.03 1009.53 1009.06 1008.61 1008.17 1007.74 1007.31 1006.88 1006.45
1021.01 1020.91 1020.81 1020.71 1020.62 1020.51 1020.39 1020.24 1020.06 1019.83 1019.57 1019.28 1018.95 1018.61 1018.26 1017.91 1017.57 1017.25 1016.93 1016.62 1016.30 1015.96 1015.59 1015.17 1014.69 1014.15 1013.55 1012.90 1012.22 1011.51 1010.81 1010.11 1009.44 1008.81 1008.22 1007.68 1007.18 1006.71 1006.27 1005.85 1005.43 1005.02 1004.61
1020.62 1020.49 1020.37 1020.26 1020.15 1020.04 1019.92 1019.77 1019.60 1019.39 1019.15 1018.88 1018.57 1018.25 1017.92 1017.58 1017.25 1016.91 1016.57 1016.21 1015.83 1015.41 1014.94 1014.41 1013.80 1013.13 1012.39 1011.60 1010.77 1009.93 1009.09 1008.27 1007.50 1006.77 1006.11 1005.51 1004.97 1004.48 1004.03 1003.61 1003.21 1002.82 1002.43
Thickness
5403 5400 5397 5394 5391 5388 5385 5383 5382 5381 5380 5378 5377 5377 5377 5377 5378 5379 5379 5379 5380 5380 5381 5383 5385 5386 5387 5388 5390 5391 5392 5394 5400 5409 5410 5411 5411 5413 5416 5418 5421 5425 5430
5393 5389 5385 5382 5379 5376 5374 5372 5370 5368 5367 5366 5364 5363 5363 5363 5364 5364 5364 5365 5365 5366 5367 5369 5370 5371 5372 5373 5375 5377 5378 5380 5383 5390 5394 5393 5394 5396 5399 5402 5406 5410 5415
5382 5378 5374 5370 5367 5364 5362 5359 5357 5356 5354 5353 5351 5350 5350 5349 5350 5351 5350 5351 5351 5351 5353 5354 5355 5356 5357 5359 5360 5362 5364 5366 5368 5371 5377 5378 5379 5380 5383 5387 5391 5395 5399
5371 5366 5362 5359 5355 5353 5350 5347 5345 5343 5341 5339 5338 5337 5336 5336 5336 5337 5336 5336 5337 5337 5338 5339 5341 5341 5343 5344 5347 5348 5350 5352 5353 5356 5361 5364 5365 5366 5367 5371 5377 5381 5385
5359 5355 5351 5348 5344 5341 5338 5335 5333 5330 5328 5326 5325 5324 5323 5322 5323 5323 5323 5323 5324 5325 5325 5326 5327 5328 5330 5332 5334 5336 5337 5338 5340 5342 5346 5349 5352 5353 5354 5358 5362 5368 5373
5347 5343 5339 5336 5332 5329 5326 5323 5320 5318 5315 5313 5312 5310 5309 5309 5309 5310 5310 5310 5311 5311 5312 5313 5314 5315 5317 5319 5321 5324 5325 5327 5328 5330 5333 5336 5340 5341 5343 5345 5348 5353 5361
5335 5331 5327 5323 5320 5317 5313 5310 5307 5305 5302 5300 5299 5298 5297 5297 5296 5297 5298 5298 5298 5298 5298 5299 5302 5304 5305 5306 5308 5311 5313 5315 5317 5319 5322 5325 5328 5331 5332 5335 5337 5341 5348
5322 5318 5315 5311 5307 5304 5301 5298 5295 5292 5290 5288 5287 5286 5285 5285 5284 5285 5286 5286 5286 5286 5286 5287 5288 5290 5291 5293 5295 5299 5302 5304 5307 5309 5312 5316 5317 5318 5320 5323 5327 5332 5337
5309 5305 5302 5298 5295 5292 5288 5285 5283 5280 5278 5277 5275 5274 5273 5273 5273 5273 5274 5274 5274 5275 5275 5276 5277 5279 5281 5282 5284 5287 5292 5296 5297 5299 5302 5304 5306 5308 5310 5312 5316 5320 5327
5296 5293 5289 5286 5282 5279 5276 5273 5270 5267 5266 5264 5264 5262 5261 5262 5262 5262 5262 5262 5263 5264 5265 5266 5267 5268 5270 5271 5272 5275 5280 5285 5286 5289 5292 5294 5296 5298 5300 5302 5305 5309 5316
5284 5280 5277 5273 5270 5267 5264 5261 5258 5255 5253 5251 5252 5252 5251 5251 5252 5252 5251 5250 5251 5252 5254 5255 5256 5258 5260 5262 5263 5266 5270 5274 5277 5279 5282 5284 5287 5289 5291 5294 5296 5300 5305
5271 5268 5264 5261 5257 5255 5252 5249 5246 5243 5241 5239 5238 5239 5239 5239 5239 5239 5240 5240 5240 5241 5242 5244 5245 5247 5249 5252 5254 5257 5260 5263 5265 5268 5271 5275 5278 5281 5283 5286 5289 5293 5297
5258 5254 5251 5248 5245 5242 5239 5236 5234 5231 5228 5227 5226 5226 5227 5227 5227 5227 5228 5229 5229 5229 5231 5233 5235 5237 5240 5242 5244 5247 5249 5251 5253 5257 5261 5265 5268 5271 5274 5277 5281 5285 5289
5244 5241 5239 5236 5233 5230 5227 5224 5222 5219 5216 5215 5214 5214 5214 5214 5214 5215 5216 5216 5217 5218 5219 5222 5224 5227 5229 5231 5234 5235 5238 5241 5244 5247 5251 5254 5257 5261 5264 5268 5272 5277 5282
5231 5229 5226 5224 5221 5218 5216 5212 5210 5208 5205 5203 5203 5202 5202 5203 5204 5204 5205 5207 5207 5207 5210 5212 5213 5215 5218 5220 5223 5225 5228 5230 5233 5236 5239 5243 5247 5252 5256 5259 5262 5267 5271
5220 5217 5214 5211 5209 5207 5205 5203 5201 5198 5196 5194 5193 5192 5193 5193 5194 5195 5195 5197 5198 5199 5200 5201 5202 5203 5206 5209 5212 5215 5217 5220 5223 5226 5229 5233 5237 5241 5246 5249 5253 5257 5263
5207 5205 5202 5200 5197 5195 5193 5191 5190 5189 5186 5184 5183 5183 5183 5183 5183 5184 5185 5186 5188 5188 5188 5190 5191 5192 5195 5197 5200 5203 5207 5211 5213 5216 5220 5223 5227 5231 5235 5240 5245 5249 5254
5196 5194 5191 5187 5185 5182 5180 5179 5178 5177 5176 5175 5173 5172 5172 5172 5172 5173 5174 5175 5176 5176 5176 5178 5180 5181 5184 5187 5190 5193 5197 5201 5204 5207 5211 5215 5218 5222 5226 5231 5236 5240 5246
5186 5182 5180 5177 5174 5172 5170 5169 5167 5166 5164 5163 5163 5162 5161 5161 5161 5161 5162 5163 5164 5166 5166 5167 5169 5171 5174 5177 5180 5184 5187 5191 5194 5198 5202 5206 5211 5214 5219 5223 5228 5234 5238
5176 5174 5171 5168 5165 5162 5160 5158 5157 5155 5153 5152 5151 5150 5151 5151 5152 5152 5152 5152 5154 5155 5157 5158 5160 5162 5165 5168 5171 5174 5178 5182 5185 5190 5194 5198 5203 5207 5211 5216 5221 5226 5231
5168 5165 5163 5160 5156 5153 5151 5149 5146 5144 5143 5142 5141 5140 5142 5142 5142 5142 5142 5143 5144 5146 5148 5149 5151 5154 5156 5159 5163 5166 5169 5174 5178 5182 5187 5192 5196 5200 5205 5210 5215 5220 5225
5159 5156 5154 5151 5148 5144 5142 5140 5137 5135 5134 5133 5133 5132 5133 5133 5132 5133 5133 5134 5136 5137 5139 5141 5144 5146 5149 5151 5155 5158 5163 5167 5172 5176 5180 5185 5190 5195 5199 5204 5209 5214 5219
5151 5148 5146 5143 5139 5137 5134 5131 5129 5127 5125 5124 5124 5125 5124 5124 5124 5125 5126 5127 5128 5130 5132 5134 5137 5140 5143 5146 5149 5152 5157 5162 5166 5170 5175 5180 5185 5190 5194 5199 5205 5209 5214
5144 5141 5138 5135 5132 5129 5126 5123 5121 5119 5118 5117 5117 5117 5117 5117 5117 5118 5119 5120 5122 5124 5126 5128 5131 5135 5139 5142 5146 5149 5153 5158 5162 5166 5171 5176 5181 5186 5191 5195 5200 5205 5210
5136 5133 5131 5128 5125 5122 5120 5117 5115 5113 5112 5111 5110 5111 5111 5111 5111 5112 5114 5115 5117 5119 5122 5124 5128 5132 5136 5140 5143 5147 5152 5156 5161 5165 5170 5174 5179 5183 5187 5192 5197 5202 5206
5129 5126 5124 5121 5119 5116 5114 5112 5109 5107 5106 5105 5105 5105 5105 5106 5107 5108 5109 5111 5113 5115 5119 5122 5125 5129 5133 5137 5143 5148 5152 5158 5162 5166 5169 5173 5178 5182 5186 5190 5194 5198 5202